パンスターズ彗星

C/2021 Q6 ( PanSTARRS )

English version
Home page
Updated on August 10, 2025

---------------------------------------------------------------------

・ プロフィール

発見日 2021年8月22日
発見光度 22.2等
発見者 Pan-STARRS 1 telescope (Haleakala)

・ 写真集

・ 軌道要素

Epoch 2025 May 5.0 TT = JDT 2460800.5
T 2024 Mar. 25.21528 TT                                 Pike
q   8.7077363            (2000.0)            P               Q
z  -0.0003136      Peri.  141.06419     +0.96875427     -0.10224288
 +/-0.0000019      Node   133.57406     -0.21739553     -0.78860758
e   1.0027310      Incl.  161.82611     +0.11939159     -0.60633694
From 375 observations 2021 Jan. 2-2025 July 28, mean residual 0".4.

・ 光度変化

        m1 = -4.5 + 5 logΔ + 20.0 log r(t + 250)

---------------------------------------------------------------------

軌道要素はM.P.E.C. 2025-O159に掲載されたものです。
光度グラフはComet for Windowsで作成したものです。

---------------------------------------------------------------------

Copyright(C) Seiichi Yoshida (comet@aerith.net). All rights reserved.